Weather in Gofitskoye

Russia / Stavropol Krai     45°04′40″N   43°02′14″E
temp.,
°C
wind,
m/s
gust,
m/s
humid.,
%
clouds,
%
prec.,
mm/h
press.,
hPa
HPBL,
m
6 may, thu
thu600:00+8se34690 0.0 101754
03:00+7se410710 0.0 1017189
06:00+8se513740 0.0 1017379
09:00+13se913530 0.0 1016936
12:00+16se9114673 0.0 10141183
15:00+18se784351 0.0 10131369
18:00+16se595657 0.0 1013371
21:00+12se61361100 0.0 1015287
7 may, fri
fri700:00+10se61267100 0.0 1015319
03:00+9sse496593 0.0 1015221
06:00+9se367256 0.0 1016144
09:00+15ssw225551 0.0 1016443
12:00+20nw34505 0.0 10161301
15:00+20wnw65445 0.0 10161524
18:00+17wnw46595 0.0 1017262
21:00+13w22695 0.0 101912
8 may, sat
sat800:00+12wnw11706 0.0 101810
03:00+11se116926 0.0 101810
06:00+12se34745 0.0 101791
09:00+18se57605 0.0 1016627
12:00+21se674720 0.0 10151229
15:00+22se7748100 0.0 10131366
18:00+19se4859100 0.0 1013264
21:00+15se4126894 0.0 1013258
9 may, sun
sun900:00+12se511775 0.0 1011212
03:00+10se498613 0.0 1010176
06:00+11sse1284100 0.0 100988
09:00+15nw101383100 0.0 1010981
12:00+14nnw6989100 1.0 1010606
15:00+11wnw101491100 1.4 1013728
18:00+6wnw101693100 3.3 1017905
21:00+5wnw91495100 6.4 10211078
10 may, mon
mon1000:00+5wnw91487100 0.3 10211044
03:00+4w81689100 0.3 1022678
06:00+5w814885 0.0 1021728
09:00+10w912655 0.0 10191379
12:00+12w9115480 0.3 10192083
15:00+12wnw9124914 0.3 10182061
18:00+10wnw6116826 0.0 10191439
21:00+7sw268194 0.1 1021496